User: anonymous   Login
Location: Pilipovskiye Korichintsy
(49.1833°N, 27.4667°E)
Time: 23:26:12
(UTC+00:00)
Language:

Cosmos 1954 Rocket - Orbit

View from above orbital plane
View from above orbital plane
View from above satellite
View from above satellite

Ground track
Ground track

The orbit data is extracted from the following two-line orbital elements,

1 19257U 88053B   20273.22226980 +.00000046 +00000-0 +23917-4 0  9999
2 19257 074.0497 170.1838 0019556 125.6608 027.7647 14.37481765690913
Epoch (UTC): 29 September 2020 05:20:04
Eccentricity: 0.0019556
inclination: 74.0497°
perigee height: 753 km
apogee height: 781 km
right ascension of ascending node: 170.1838°
argument of perigee: 125.6608°
revolutions per day: 14.37481765
mean anomaly at epoch: 27.7647°
orbit number at epoch: 69091

The dashed part of the orbit path shows where the satellite is in the earth's shadow,  

DLR